Theta_e
291 291 291 291 291 291 291 291 291 291 291 291 291 291 291 291 292 292 292 292 293 293 293 293 294 294 294 294 294 294 295 295 295 295 296 296 296 296 296 296 297 297 297 297 297 297 297 297 297 297 297 297 298 298 298 298 298 299 299 299 299 299 300 300 300 300 300 300 300 300 300 301 301 301 301 301 301 301 302 302 302 302 302 302 302 302
291 291 291 291 291 291 291 291 291 291 291 291 291 291 291 291 292 292 292 292 293 293 293 293 294 294 294 294 294 294 295 295 295 295 296 296 296 296 296 296 297 297 297 297 297 297 297 297 297 297 297 297 297 298 298 298 298 298 298 298 299 299 299 299 299 299 300 300 300 299 300 300 300 300 300 300 301 301 301 301 301 302 302 302 302 302
291 291 290 290 290 290 290 291 290 291 291 291 291 291 291 291 292 292 292 292 293 293 293 293 293 294 294 294 294 294 294 295 295 295 296 296 296 296 296 296 297 297 297 297 297 297 297 297 297 297 297 297 297 297 297 298 298 298 298 298 298 298 298 298 298 299 299 299 299 299 299 299 300 300 300 300 300 300 300 301 301 301 301 301 301 301
290 290 290 290 290 290 290 290 290 290 290 291 291 291 291 291 292 292 292 292 293 293 293 293 293 293 294 294 294 294 294 295 295 295 295 296 296 296 296 296 296 297 297 297 297 297 297 297 297 297 297 297 297 297 297 297 297 298 298 298 298 298 298 298 298 298 298 298 298 298 299 299 299 299 299 299 300 300 300 300 300 300 301 301 301 301
290 290 290 290 290 290 290 290 290 290 290 291 291 291 291 291 292 292 292 292 293 293 293 293 293 293 293 294 294 294 294 295 295 295 295 296 296 296 296 296 296 297 297 297 297 297 297 297 297 297 297 297 297 297 297 298 298 298 298 298 298 298 298 298 298 298 298 298 298 298 298 299 299 299 299 299 299 299 300 300 300 300 300 301 301 301
290 290 290 290 290 290 290 290 290 290 291 291 291 291 291 292 292 292 292 293 293 293 293 293 293 293 293 293 293 294 294 295 295 295 295 295 296 296 296 296 296 296 297 297 297 297 297 297 297 297 297 297 297 297 297 297 298 298 298 298 298 298 298 298 298 298 298 298 298 298 299 299 299 299 299 299 299 300 300 300 300 300 300 300 301 301
290 290 290 290 290 290 290 290 290 291 291 291 291 291 291 292 292 292 293 293 293 293 293 293 293 293 293 293 293 293 294 294 295 295 295 295 295 295 295 295 296 296 296 296 297 297 297 297 297 297 297 297 297 297 297 297 297 297 297 297 297 298 298 298 298 298 298 298 298 298 298 298 299 299 299 299 299 299 299 300 300 300 300 300 300 300
290 290 290 290 290 290 290 290 290 291 291 291 291 291 291 292 292 292 293 293 293 293 293 293 293 293 293 293 293 293 294 294 294 295 295 295 295 295 295 295 295 296 296 296 296 296 296 297 297 297 296 296 296 296 296 297 297 297 297 297 297 297 297 297 297 297 298 298 298 298 298 298 298 298 298 298 298 299 299 299 299 299 299 299 299 300
290 290 290 290 290 290 290 290 290 290 290 290 290 291 291 292 292 293 293 293 293 293 293 293 293 293 293 293 293 293 294 294 295 295 295 294 294 295 295 295 295 296 296 296 296 296 296 297 297 297 297 297 296 296 297 297 297 297 297 297 297 297 297 297 297 297 297 297 297 297 297 297 297 298 298 298 298 298 298 298 298 298 298 299 299 299
290 290 290 290 290 290 290 290 290 290 290 290 291 291 292 292 293 293 293 293 293 293 293 293 293 293 293 293 293 294 295 295 295 295 294 294 294 294 295 295 296 296 296 296 296 296 296 296 297 297 297 297 297 297 296 296 296 296 296 297 297 297 297 297 297 297 297 297 297 297 297 297 297 297 297 297 298 298 298 298 298 298 298 298 298 298
290 290 290 290 290 290 290 290 290 290 290 291 291 292 292 293 293 293 293 293 293 293 293 293 293 293 293 293 294 294 295 295 295 294 294 294 294 294 295 295 295 296 296 296 296 296 296 296 296 296 296 296 296 296 296 296 296 296 296 296 296 296 296 296 296 296 297 297 297 297 297 297 297 297 297 297 297 297 297 298 298 298 298 298 298 298
290 290 290 290 290 290 290 290 290 291 291 292 292 293 293 293 293 293 293 293 293 293 293 293 293 293 293 294 294 295 295 294 294 294 293 294 294 294 295 295 295 296 296 296 296 296 296 296 296 296 295 295 295 295 295 295 295 295 295 295 295 296 296 296 296 296 296 297 297 297 297 297 297 297 297 297 297 297 297 297 298 298 298 298 298 298
290 290 290 290 290 290 290 291 291 292 292 293 293 293 293 293 293 293 293 293 293 293 293 293 293 294 294 294 295 295 294 294 293 293 293 294 294 295 295 295 295 295 295 295 295 295 295 295 295 295 295 295 295 295 295 295 295 295 295 295 295 296 296 296 296 296 296 296 296 296 297 297 297 297 297 297 297 297 297 297 297 297 298 298 298 298
290 290 290 290 290 290 290 291 291 291 292 292 292 293 293 293 293 293 294 294 294 294 293 293 293 294 294 294 294 294 294 293 293 293 294 294 295 295 295 295 294 294 294 294 294 294 294 294 294 294 294 294 295 295 295 295 295 295 295 296 296 296 296 296 296 296 296 296 296 296 296 296 297 297 297 297 297 297 297 297 297 297 297 297 297 297
290 290 290 290 290 290 290 291 291 291 291 292 292 292 292 293 293 293 293 293 293 293 292 292 292 293 293 293 293 294 294 293 293 294 294 295 294 294 294 293 293 293 293 293 293 293 293 293 293 293 294 294 294 295 295 295 295 295 296 296 296 296 296 296 295 295 296 296 296 296 296 296 296 296 297 296 297 297 297 297 297 297 297 297 297 297
290 290 290 290 290 290 290 291 291 291 291 291 291 291 291 292 292 292 292 291 291 291 291 292 292 292 292 292 293 293 293 294 294 294 294 293 293 293 292 292 292 293 293 293 293 293 292 293 293 293 293 294 294 294 295 295 295 295 296 296 296 296 296 296 296 295 295 295 296 296 296 296 296 296 296 296 296 297 297 297 297 297 297 297 297 297
290 290 291 291 291 291 291 291 291 290 290 291 291 291 292 292 292 291 291 291 291 291 291 291 292 292 292 292 293 293 293 293 293 293 292 292 292 292 292 292 292 292 292 292 292 292 292 292 292 292 292 293 293 294 295 295 295 295 295 296 296 296 296 296 296 296 295 295 295 296 296 296 296 296 297 297 297 297 297 297 297 297 297 297 297 297
291 291 291 291 291 291 291 291 291 291 291 291 292 292 292 291 291 291 291 291 291 291 291 291 292 292 293 294 294 293 293 293 292 292 292 292 292 292 291 292 292 292 291 291 291 291 291 291 291 291 292 292 292 293 294 294 295 295 295 296 296 296 296 296 296 296 295 295 295 295 296 296 296 296 297 297 297 297 297 297 297 297 297 296 296 297
291 291 292 292 292 292 292 292 292 292 292 292 292 291 291 291 291 291 291 291 291 291 291 291 292 293 293 293 293 293 292 292 292 292 292 292 291 291 291 291 291 291 291 291 291 291 291 291 291 291 291 291 292 292 293 293 293 294 294 295 295 295 295 295 295 295 295 295 295 295 296 296 296 296 296 297 297 297 297 297 297 296 296 296 296 296
292 292 292 292 292 292 293 292 292 292 291 291 291 291 291 291 291 291 291 291 291 291 292 292 293 293 293 292 292 292 292 292 292 292 292 291 291 291 291 291 291 291 290 290 290 290 290 290 290 291 291 291 291 292 292 292 292 293 293 294 294 295 295 295 295 295 295 295 295 295 296 296 296 296 296 297 297 297 297 297 297 296 296 296 296 296
292 292 292 292 292 292 292 292 292 291 291 291 290 291 291 291 291 291 291 291 292 292 292 292 292 292 292 292 292 292 291 291 291 291 291 291 291 291 291 290 290 290 290 290 290 290 290 290 290 290 290 291 291 291 291 291 291 292 292 293 294 294 295 295 295 295 295 295 295 295 295 296 296 296 296 296 297 297 297 296 296 296 296 296 296 296
292 292 292 292 292 292 292 291 291 291 290 290 290 291 291 291 291 291 292 291 291 291 291 291 291 291 291 291 291 291 291 291 291 291 291 291 291 291 290 290 290 290 290 290 290 290 290 290 290 290 290 290 290 290 290 290 291 291 292 293 293 294 294 294 294 295 295 295 295 295 295 295 295 296 296 296 296 296 296 296 296 296 296 296 296 296
291 291 291 292 291 291 291 291 290 290 290 290 291 291 291 291 291 291 290 290 290 290 289 290 290 290 290 290 290 290 290 291 291 291 291 291 291 291 290 290 290 290 289 289 289 289 289 289 289 289 289 289 289 290 290 290 291 291 292 292 292 292 293 293 294 294 294 294 294 294 294 295 295 295 296 296 296 296 296 296 296 296 296 296 296 296
291 291 291 291 291 290 290 290 290 290 291 291 291 292 292 291 291 290 290 290 289 289 289 290 290 290 289 289 290 290 290 290 290 290 290 290 290 290 290 290 289 289 289 289 289 289 289 289 289 289 289 289 289 289 290 290 290 290 290 291 291 291 291 291 292 293 293 294 294 294 294 294 295 295 296 296 296 296 296 296 296 296 296 296 296 296
292 291 291 290 290 290 290 290 291 291 291 292 292 292 291 291 290 290 289 289 289 289 289 289 289 289 289 289 289 289 289 289 289 289 290 290 290 289 289 289 289 288 288 288 288 288 288 288 288 288 288 288 288 289 289 289 289 289 289 290 290 290 291 291 291 292 292 293 294 294 294 294 295 295 295 296 296 296 296 296 295 295 295 295 295 295
292 291 291 291 291 291 291 291 292 292 292 292 292 292 291 290 290 289 289 289 288 288 288 288 288 288 288 288 288 288 289 289 289 289 289 289 289 288 288 288 288 288 288 288 288 288 288 288 288 288 288 288 288 288 288 288 288 289 289 290 290 291 291 291 292 292 293 294 294 294 294 294 295 295 295 296 296 296 296 295 295 295 295 295 295 295
291 291 291 291 291 291 291 291 291 292 292 292 291 290 290 290 289 289 288 288 288 288 288 288 288 288 288 288 288 288 288 288 288 288 288 288 288 288 288 288 288 288 288 288 288 288 288 288 287 287 287 287 287 287 287 288 288 289 290 290 290 290 290 290 291 292 293 293 294 294 294 295 295 295 295 295 295 295 295 295 295 295 295 295 295 295
290 290 291 291 291 291 291 291 291 291 291 290 290 289 289 289 289 288 288 288 288 288 288 288 288 288 288 288 288 288 288 288 288 288 288 287 287 287 287 287 288 288 288 287 287 287 287 287 287 286 286 286 287 287 287 288 289 289 290 289 289 289 289 289 289 290 291 291 292 293 293 294 294 294 294 294 295 295 295 295 295 295 295 295 295 295
290 290 291 291 291 291 290 290 290 289 289 289 289 289 289 289 288 288 288 287 287 287 287 287 287 287 288 288 287 287 287 287 287 287 287 287 287 287 287 287 287 287 287 287 286 286 286 286 286 286 287 287 287 288 288 288 289 289 288 288 288 288 288 289 289 289 290 290 291 292 292 292 293 293 293 293 294 294 294 294 294 294 294 294 294 294
291 291 290 290 289 289 289 288 288 288 288 289 289 289 288 288 288 288 287 287 287 287 287 287 287 287 287 287 287 287 287 287 287 287 287 287 287 287 287 286 286 286 286 286 286 286 286 286 286 286 287 287 287 287 287 287 287 287 287 287 288 288 288 288 289 289 289 290 290 291 291 291 292 292 292 292 293 293 293 293 294 294 294 294 294 294
290 290 289 289 288 288 288 288 288 288 288 288 288 288 288 288 287 287 287 287 287 287 287 287 287 287 287 287 287 287 286 286 286 286 286 286 286 286 286 286 286 286 286 286 286 286 286 286 286 286 286 286 286 286 286 286 287 287 287 287 287 288 288 288 288 288 289 289 289 290 290 290 291 291 292 292 292 292 293 293 293 294 294 294 294 294
290 289 289 288 288 288 288 288 288 288 288 288 288 288 288 287 287 287 287 287 287 287 287 286 286 286 286 286 286 286 286 286 286 286 286 286 286 286 286 286 286 286 286 286 286 286 286 286 285 285 285 285 285 285 286 286 287 287 287 287 288 288 287 288 288 288 288 289 289 289 290 290 290 291 291 292 292 292 293 293 293 294 294 294 294 294
289 288 288 288 288 287 287 287 287 287 288 288 288 288 287 287 287 287 287 287 287 286 286 286 286 286 286 286 286 285 285 285 285 285 286 286 286 286 286 286 286 285 285 285 285 285 285 285 285 285 285 285 285 286 286 286 286 287 287 287 287 287 287 287 288 288 288 289 289 289 289 290 290 291 291 292 292 292 293 293 293 293 293 293 293 293
288 288 287 287 287 287 287 287 287 287 287 287 287 287 287 287 287 287 287 287 286 286 286 286 286 286 285 285 285 285 285 285 285 285 285 286 286 286 285 285 285 285 285 285 285 285 285 285 285 285 285 286 286 286 286 286 286 286 287 287 287 287 287 287 287 288 288 288 288 289 289 290 290 290 291 291 292 292 293 293 293 293 293 293 293 293
287 287 287 287 287 287 287 287 287 287 287 287 287 287 287 287 287 286 286 286 286 286 285 285 285 285 285 285 285 285 285 285 285 285 285 285 285 285 285 285 285 285 285 285 285 285 285 285 285 286 286 286 286 286 286 286 286 286 286 286 286 287 287 287 287 287 287 288 288 289 289 289 290 290 290 291 291 292 292 292 292 293 293 293 293 293
287 287 287 287 286 287 287 287 287 287 287 287 287 287 286 286 286 286 285 285 285 285 285 285 285 284 285 285 285 285 285 285 285 285 285 285 285 285 285 285 285 285 285 285 285 285 285 286 286 286 286 286 286 286 286 286 286 286 286 286 286 286 287 287 287 287 287 288 288 289 289 289 290 290 290 291 291 291 291 291 291 291 291 292 292 292
286 286 286 286 286 286 287 287 287 287 287 287 286 286 286 285 285 285 285 285 284 284 284 284 284 284 284 284 284 284 284 284 284 284 284 284 284 285 285 285 285 285 285 285 285 286 286 286 286 286 286 286 286 286 286 286 286 286 286 286 286 286 287 287 287 287 288 288 288 289 289 290 290 290 290 291 291 291 291 291 291 290 290 290 290 290
286 286 286 286 286 286 287 287 287 287 286 286 286 285 285 285 285 284 284 284 284 284 284 284 284 284 284 284 284 284 284 284 284 284 284 285 285 285 285 285 285 285 285 285 286 286 286 286 286 286 286 286 286 286 286 286 286 286 286 286 286 286 287 287 287 287 288 288 289 289 289 290 290 291 290 290 290 290 291 291 291 290 290 290 290 290
286 286 286 286 286 287 287 287 286 286 286 285 285 285 285 284 284 284 284 284 284 284 284 284 284 284 284 284 284 284 284 284 285 285 285 285 285 285 285 285 285 285 285 286 286 286 286 286 286 286 286 286 286 287 287 287 287 287 287 287 287 287 287 287 287 287 288 288 288 288 289 290 290 290 290 290 290 290 290 290 290 290 290 290 290 290
286 286 286 286 287 287 287 286 286 286 285 285 285 284 284 284 284 284 285 284 284 284 284 284 284 284 284 284 285 285 285 285 285 285 285 285 285 285 285 285 285 286 286 286 286 286 286 286 286 286 286 286 287 287 287 287 287 287 287 287 287 287 287 287 287 287 287 288 288 288 289 290 290 290 290 290 290 290 290 290 290 290 290 290 291 291
286 286 286 287 287 287 286 286 285 285 285 284 284 284 284 284 285 285 285 284 284 284 284 284 285 285 285 285 285 285 285 285 285 285 285 285 285 285 286 286 286 286 286 286 286 286 286 286 286 286 286 287 287 287 287 287 287 287 288 288 288 288 288 288 288 288 288 288 288 289 289 289 289 289 289 289 289 289 290 290 290 290 290 290 290 290
286 286 286 287 286 286 286 285 285 285 284 284 284 284 284 285 285 285 284 284 284 284 285 285 285 285 285 285 285 285 285 285 285 285 285 285 285 285 285 285 286 286 286 286 286 286 286 286 287 287 287 287 287 287 287 287 287 288 288 288 288 288 288 288 288 287 287 288 288 288 289 289 289 289 289 289 289 289 289 290 290 290 290 290 290 290
286 286 286 286 286 285 285 285 284 284 284 284 284 284 284 284 284 284 284 284 284 285 285 285 285 285 286 285 285 284 284 284 284 284 284 284 285 285 285 285 285 285 286 286 286 286 286 287 287 287 287 287 287 287 288 288 288 288 288 288 288 288 288 288 288 287 287 288 288 288 289 289 289 289 289 289 289 289 289 289 289 289 289 289 290 290
286 286 286 285 285 285 285 285 284 284 284 284 284 284 284 284 284 284 284 284 285 285 285 285 285 285 285 284 284 284 284 284 284 284 284 284 285 285 285 285 286 286 286 286 286 286 287 287 287 287 287 287 287 287 288 288 288 288 288 288 288 288 288 288 288 288 288 288 288 289 289 289 289 289 288 288 288 288 288 288 289 289 289 289 289 290
285 285 285 285 285 285 285 284 284 284 284 284 284 284 284 284 284 284 284 284 285 285 285 285 285 285 284 284 283 283 283 283 283 283 284 284 285 285 285 285 285 286 286 286 286 286 286 286 286 286 286 287 287 287 288 288 288 288 288 288 288 288 288 288 288 288 288 288 289 289 289 289 288 288 288 288 288 288 288 289 289 289 289 289 289 289
285 285 285 285 285 285 285 285 284 284 284 284 284 284 284 284 284 284 284 284 285 285 285 285 285 284 284 283 283 283 283 283 283 283 283 284 284 284 284 284 285 285 285 285 285 285 285 285 286 286 286 287 287 287 288 288 288 288 288 289 289 289 289 288 289 289 289 289 289 289 288 288 288 288 288 288 289 289 289 289 289 289 289 289 289 289
285 285 285 285 285 285 285 284 284 284 284 284 284 284 284 284 284 284 284 284 285 285 286 285 284 284 283 283 283 283 282 282 282 283 283 283 283 283 283 283 283 284 284 284 284 284 285 285 285 286 286 286 287 288 288 288 288 289 289 289 289 289 289 289 289 289 289 289 289 288 288 288 288 288 288 289 289 290 290 289 289 289 289 289 289 288
285 285 285 285 285 285 285 284 284 284 284 284 284 284 284 284 284 284 284 284 285 285 285 285 284 283 283 283 282 282 282 282 282 282 282 282 283 283 283 283 283 283 283 283 283 284 284 284 285 285 286 286 287 288 288 289 289 289 289 289 289 289 289 290 289 289 289 288 288 288 288 288 288 288 288 289 290 290 290 290 289 289 289 288 288 288
285 285 285 285 285 285 284 284 284 284 284 284 284 284 284 284 284 284 284 284 285 285 285 284 283 283 283 282 282 282 282 282 282 282 282 282 282 282 282 282 282 282 282 282 283 283 284 284 285 286 287 287 288 288 288 289 289 289 289 289 289 289 289 289 289 288 288 288 288 288 288 288 288 288 288 289 289 290 290 290 289 289 288 288 288 288
285 285 285 285 285 284 284 284 284 284 284 284 284 284 284 284 283 283 283 284 285 285 284 284 283 283 282 282 282 282 282 281 281 281 281 281 281 281 281 281 281 282 282 282 282 283 283 284 285 287 288 289 289 289 288 288 288 288 288 289 289 289 289 289 288 288 287 287 288 288 288 288 288 288 288 289 289 289 289 289 289 288 288 288 288 288
285 285 284 284 284 284 284 284 284 284 284 284 284 284 284 283 283 283 283 284 285 284 283 283 282 282 282 282 282 282 281 281 281 281 281 281 281 281 281 281 281 281 281 282 282 282 283 284 285 286 287 288 288 288 288 288 288 288 288 288 288 289 289 288 288 288 288 288 287 287 288 288 288 288 288 289 289 289 289 288 288 288 288 287 287 287
Wind_Speed
18 19 19 19 20 20 20 20 20 20 21 21 21 21 22 22 22 22 23 23 23 23 23 23 23 23 23 23 23 24 24 24 25 25 25 26 26 26 26 26 26 26 26 25 25 25 25 25 25 25 24 25 25 25 25 25 25 25 24 24 24 24 24 24 24 24 24 24 24 24 23 22 22 22 22 22 21 20 21 21 21 20 21 20 20 20
19 19 19 19 19 20 20 19 19 19 21 22 22 22 22 23 23 23 23 23 22 22 23 23 23 23 23 23 23 24 24 24 25 25 26 26 26 26 26 27 27 27 27 26 26 26 25 25 25 25 24 24 24 24 24 24 24 24 24 24 24 24 24 24 24 24 24 24 25 24 24 23 23 23 23 22 22 21 21 21 21 21 21 20 20 19
19 19 19 19 18 19 19 20 19 19 21 22 23 23 23 24 24 23 23 22 22 22 22 22 23 23 24 24 24 24 24 24 25 25 26 26 26 27 27 27 27 27 27 27 26 26 25 25 24 24 24 24 23 23 23 23 24 24 24 24 24 24 24 24 24 24 24 25 25 25 25 24 24 24 24 24 23 23 23 23 22 22 21 21 21 20
19 19 20 19 19 19 19 20 21 21 21 22 23 23 23 23 23 23 22 22 22 22 22 22 23 23 23 23 23 24 24 25 25 25 26 27 27 27 27 27 27 27 27 26 26 25 24 24 23 23 23 23 23 23 23 23 24 24 24 23 23 24 24 24 24 24 24 24 24 24 24 24 24 24 24 24 24 24 23 23 23 23 22 22 22 22
19 19 20 20 20 20 21 21 22 22 22 22 22 22 22 22 22 22 22 22 22 22 22 22 22 23 23 23 24 24 25 25 26 26 27 27 27 27 27 27 26 26 26 25 24 24 23 23 22 22 22 22 23 23 23 23 23 23 23 23 23 23 23 23 23 23 23 23 23 23 23 23 23 23 23 23 23 23 23 22 22 22 22 22 21 21
20 20 20 20 20 21 21 22 22 22 21 21 21 21 21 21 21 21 21 21 21 22 22 22 22 23 23 24 24 25 25 26 26 26 26 26 25 25 25 25 25 25 24 24 23 22 22 22 22 22 22 21 21 22 22 22 22 22 23 22 22 22 22 22 22 22 22 22 22 22 22 22 21 21 21 21 21 21 21 21 20 20 20 20 20 19
22 21 20 20 21 21 21 21 21 20 20 20 21 21 21 21 21 21 21 21 21 21 22 23 23 23 23 24 24 24 25 25 25 24 24 23 24 24 24 25 25 24 24 23 23 22 22 22 22 22 21 21 20 20 21 21 21 22 22 22 22 22 22 22 22 22 22 21 21 21 20 20 20 20 20 20 19 19 19 19 19 18 18 18 18 18
22 22 21 20 21 21 21 20 19 19 19 20 21 22 23 22 22 21 21 21 21 21 22 22 22 22 22 23 23 24 23 23 22 22 22 22 23 24 24 24 24 24 24 23 23 22 22 22 22 22 21 21 20 20 20 21 21 21 21 21 21 21 21 21 21 21 21 21 21 20 20 20 20 19 19 19 19 19 19 19 19 19 19 19 18 18
22 23 22 21 21 21 21 21 20 19 19 20 22 23 24 23 22 21 21 21 21 21 21 21 22 22 22 22 23 23 23 22 22 21 22 23 24 24 25 24 24 24 23 23 22 22 22 21 21 21 21 21 21 21 21 21 20 20 20 20 20 20 20 20 20 20 20 20 20 20 20 20 19 19 19 19 19 19 19 19 19 19 20 19 19 19
22 22 22 21 20 19 20 21 21 20 20 22 23 23 23 22 22 22 22 21 20 20 20 20 21 22 23 23 23 23 22 22 22 22 22 24 25 25 25 24 24 23 22 22 21 21 20 20 20 20 20 20 20 20 21 20 20 20 20 20 19 19 19 19 19 19 19 19 19 19 19 19 19 19 19 19 19 19 19 19 19 19 20 19 19 20
20 20 20 20 20 19 19 21 22 23 23 24 24 23 21 20 20 20 21 21 20 20 19 19 20 21 23 25 25 24 22 22 21 22 22 24 24 24 23 23 22 21 20 20 20 19 19 18 18 18 18 19 19 20 20 20 20 20 19 19 19 19 19 18 18 18 18 18 18 18 19 19 19 19 19 19 19 19 19 19 19 19 19 19 19 19
19 19 19 20 20 20 21 21 22 22 22 21 20 19 19 18 17 18 20 20 20 19 19 19 20 21 24 25 25 23 21 20 20 21 22 22 22 21 21 20 19 18 17 18 17 17 16 16 16 16 17 18 19 20 20 20 20 20 19 19 19 19 19 18 18 18 18 18 18 18 18 19 19 19 19 19 19 19 19 19 18 18 18 18 18 18
19 19 19 19 20 20 20 20 20 19 17 16 15 16 17 18 18 19 19 19 19 19 19 20 21 22 24 24 24 22 20 20 20 21 21 20 19 18 17 17 16 16 16 16 15 15 15 15 16 16 17 18 19 19 20 20 20 20 20 19 19 19 18 18 18 18 18 18 18 18 19 19 19 20 20 20 20 20 19 19 19 18 18 18 18 18
19 19 18 18 19 19 18 18 18 17 16 16 16 17 19 20 20 19 19 19 20 20 20 21 22 22 22 22 22 21 20 20 20 19 18 17 15 15 15 16 16 16 16 16 15 15 16 17 17 18 18 18 19 19 19 19 19 20 20 20 19 19 19 19 19 18 18 18 18 19 19 19 20 20 20 20 20 20 20 19 19 18 18 18 18 18
18 18 17 17 17 18 18 18 18 18 19 19 19 20 21 21 20 19 19 20 21 22 23 23 24 23 23 22 22 22 21 20 18 16 15 14 14 14 15 16 16 16 16 16 17 18 19 19 20 20 19 19 19 19 19 19 20 20 20 20 20 20 20 20 19 19 18 18 19 19 20 20 20 20 20 20 20 20 20 19 18 18 18 18 18 18
17 17 16 17 17 18 19 19 19 20 21 21 21 20 20 21 21 21 20 21 22 23 22 21 21 22 23 23 22 21 18 15 13 12 12 14 16 17 16 15 14 15 16 18 19 20 21 21 21 21 21 20 20 19 19 20 20 21 21 21 21 21 21 20 20 19 19 19 19 20 20 20 20 20 20 20 20 20 20 19 19 18 18 18 18 18
17 17 17 17 18 18 20 20 20 20 20 20 19 19 19 20 21 21 21 20 20 20 19 18 14 12 15 21 20 16 13 12 12 12 13 15 17 17 17 15 15 16 19 20 21 22 22 22 23 23 22 22 22 21 20 21 21 22 22 22 22 22 22 22 21 20 20 20 20 20 21 21 21 21 21 20 20 20 19 19 18 18 18 18 18 18
17 17 18 18 19 21 22 22 22 21 19 19 19 19 19 20 21 21 20 20 19 19 19 18 15 12 10 12 13 12 12 13 14 14 15 17 19 20 18 16 16 18 20 21 21 22 22 23 23 24 24 24 23 23 22 22 22 23 23 23 23 23 23 22 22 21 21 21 21 21 21 21 21 21 21 20 20 19 19 18 18 18 18 18 18 19
18 18 18 18 20 21 21 21 21 21 20 20 20 20 21 22 22 21 21 21 21 21 20 19 17 16 12 10 11 14 16 17 16 17 18 19 20 20 18 17 18 19 20 21 21 22 22 23 24 24 24 24 24 24 23 23 23 23 23 23 23 23 23 23 23 22 22 21 21 21 21 21 21 21 21 20 20 19 19 18 18 18 19 19 19 19
19 19 18 18 19 20 20 21 21 21 21 21 21 21 21 22 23 23 22 22 22 21 18 16 13 12 11 13 16 18 18 17 17 18 19 20 20 20 18 17 17 18 19 20 21 21 22 23 23 23 23 23 23 23 23 24 24 24 25 24 24 23 22 22 22 22 22 22 22 22 22 22 22 21 20 20 20 19 18 18 18 18 19 19 19 19
21 21 20 20 20 20 21 23 23 23 23 24 23 23 23 23 24 23 22 20 17 15 14 13 13 14 16 18 19 20 20 20 19 19 19 20 20 20 18 17 17 18 19 20 21 21 22 22 23 23 23 23 23 23 24 25 26 26 25 25 24 22 21 21 21 22 22 23 23 22 22 22 22 22 21 20 19 19 18 18 18 18 19 19 19 18
25 24 23 22 21 22 24 26 27 26 25 25 24 23 23 23 21 18 15 13 13 14 16 17 17 19 20 21 22 23 22 21 19 19 19 18 19 19 18 17 16 17 19 20 21 22 22 23 23 23 23 23 24 25 25 25 25 25 25 25 24 23 22 22 21 22 22 23 23 23 23 22 22 22 21 20 20 19 18 18 18 18 18 18 18 18
28 26 24 23 23 24 25 26 27 27 26 25 25 25 24 22 17 12 11 13 16 18 20 20 20 21 22 23 23 22 20 18 18 18 17 14 15 17 17 17 17 18 20 21 22 22 23 23 23 24 24 24 24 25 25 25 26 26 27 27 27 26 26 25 24 24 24 24 25 24 23 23 23 22 22 21 20 19 18 18 18 18 18 18 18 18
27 24 23 23 24 25 26 27 27 27 27 27 27 27 25 21 17 15 17 18 20 20 19 20 20 21 22 22 21 20 19 18 17 17 16 14 15 17 17 17 18 20 21 22 22 22 22 22 23 23 23 24 24 25 25 26 27 27 28 28 29 28 28 28 27 27 26 26 25 25 24 23 23 23 22 21 20 19 18 18 18 18 18 18 18 17
23 22 23 24 26 28 28 29 30 30 30 30 29 26 22 19 18 19 20 21 20 19 18 19 20 21 22 22 21 20 20 18 17 17 16 14 14 16 18 18 19 21 22 22 22 21 21 21 22 22 23 23 24 25 26 26 27 27 27 27 27 27 27 27 27 27 27 26 25 24 23 23 23 23 22 21 20 19 18 18 18 17 17 17 17 17
23 25 27 29 30 31 32 33 33 33 32 30 26 22 20 19 19 20 20 20 19 18 18 19 19 20 22 21 20 20 19 18 17 16 16 15 15 17 19 19 19 20 21 21 20 19 19 20 21 22 23 24 24 25 25 25 25 24 23 23 22 21 21 21 21 21 21 21 21 21 21 21 21 21 21 20 19 19 18 18 17 17 17 17 17 17
25 28 30 31 32 33 34 34 33 31 27 23 20 18 18 19 19 19 19 19 18 18 18 17 15 16 20 19 19 19 19 17 16 16 16 16 16 17 18 18 18 18 18 19 18 18 19 20 21 22 22 23 23 23 23 23 22 20 19 19 19 19 19 20 19 18 17 15 15 15 16 17 18 18 18 18 17 17 17 16 16 16 16 16 16 17
27 28 29 29 30 30 29 27 25 22 19 18 18 19 18 18 17 17 17 18 18 18 17 16 13 12 14 16 17 18 18 17 16 16 16 15 14 15 16 16 16 16 17 17 18 19 19 19 20 21 21 21 21 20 20 19 18 18 19 19 20 20 20 20 20 20 18 17 16 15 15 15 15 15 15 15 15 15 15 15 15 15 15 15 15 16
27 27 26 25 24 22 20 18 17 16 16 17 18 18 17 16 15 15 16 16 16 16 16 16 15 14 14 15 17 18 17 17 16 15 14 13 13 14 15 15 15 15 16 16 18 18 18 18 18 18 18 17 17 17 17 17 18 19 20 21 20 20 19 19 19 19 19 18 18 17 17 16 16 16 15 15 14 14 14 14 14 15 15 14 14 14
26 24 22 20 19 18 17 16 17 17 17 17 17 16 16 15 15 15 15 15 14 14 14 15 15 15 14 14 13 12 13 15 14 13 12 11 12 13 15 15 15 15 14 13 11 11 13 15 16 15 15 16 16 17 18 19 20 20 21 21 21 21 20 19 19 19 19 18 18 18 18 18 18 17 17 16 16 15 15 15 15 14 14 14 14 14
21 19 17 17 17 17 17 17 17 17 17 17 16 16 15 14 14 14 13 13 12 13 13 14 14 14 14 11 7 5 7 13 14 13 13 12 12 13 14 14 14 14 13 10 5 2 6 11 14 16 16 17 18 19 19 19 20 20 20 20 20 20 20 20 20 19 19 18 18 18 18 18 19 19 18 18 17 16 16 16 15 14 14 14 14 14
18 16 16 17 18 18 18 18 18 17 17 16 15 15 14 13 13 12 12 12 12 12 13 14 15 15 15 13 9 6 9 14 16 15 14 13 12 13 13 12 13 13 12 11 9 6 5 6 12 17 18 18 18 19 19 19 18 18 18 18 18 18 18 19 19 19 18 18 17 17 17 18 18 18 18 18 18 17 17 16 15 15 14 14 14 14
19 18 18 19 19 19 19 19 18 17 16 15 14 14 13 13 13 12 12 12 13 13 14 15 15 16 15 15 14 14 15 17 17 15 14 13 12 12 12 12 12 13 13 13 13 12 10 10 13 17 18 18 18 18 18 18 18 17 17 17 17 17 17 17 17 17 17 17 17 17 17 17 17 17 17 17 17 17 17 16 16 16 15 15 15 15
21 21 21 21 21 21 20 20 19 18 16 14 13 13 13 13 13 13 13 13 13 13 15 15 15 15 15 15 15 16 17 17 15 14 13 13 12 11 12 13 13 13 13 13 13 13 13 15 15 16 16 18 18 18 17 17 17 17 17 16 16 16 17 17 17 16 16 17 17 17 16 16 16 16 16 15 15 15 15 15 15 15 15 16 16 16
22 21 21 21 21 21 20 20 18 17 15 14 12 12 12 13 13 13 13 13 13 14 14 15 15 15 15 15 15 15 16 16 15 14 14 14 13 13 13 13 13 12 12 12 12 12 12 14 16 16 15 16 17 18 17 17 16 16 16 16 16 16 17 16 16 16 17 17 17 16 16 15 15 15 14 14 13 14 14 14 14 14 14 14 14 14
21 21 20 20 20 19 19 18 17 15 14 12 11 11 11 12 13 14 14 15 15 15 15 16 17 18 18 17 17 17 18 18 17 16 15 15 15 15 14 13 13 12 12 13 13 13 13 14 16 16 16 14 15 16 17 17 16 16 16 16 16 16 16 16 16 16 17 17 16 16 15 16 15 15 14 13 12 13 14 15 15 15 14 14 13 13
19 19 19 19 18 18 17 16 15 13 12 11 11 11 12 14 15 16 16 17 17 18 18 19 20 20 19 19 19 20 20 21 20 19 18 17 17 16 15 14 14 13 13 13 14 14 14 14 15 16 15 14 13 14 16 17 17 17 16 16 16 16 16 16 16 16 16 16 15 16 17 17 16 14 13 11 11 11 12 13 14 15 14 14 14 13
18 18 18 18 17 17 15 14 12 10 10 10 12 13 14 15 16 17 17 18 19 19 19 19 19 19 18 18 19 20 20 21 21 21 20 18 18 18 17 16 16 15 15 14 14 14 13 12 10 10 12 14 15 16 17 17 17 16 17 17 16 16 16 15 15 15 15 15 16 17 18 17 16 14 12 11 10 11 11 12 12 12 12 12 13 13
16 16 17 17 16 15 14 12 10 9 10 11 13 14 15 16 17 17 18 18 18 17 17 17 17 17 18 18 18 18 19 19 20 20 19 19 19 20 20 19 18 17 16 16 15 15 14 13 11 10 10 12 15 17 18 17 16 17 17 17 16 16 15 14 14 14 15 16 16 17 16 15 14 13 12 12 13 13 12 12 11 10 10 10 11 11
15 15 15 15 15 14 12 9 9 9 11 12 14 15 15 15 16 16 16 15 15 15 15 15 16 17 17 18 18 18 18 18 18 18 18 19 19 20 20 20 19 18 17 16 15 15 15 15 15 16 16 15 15 16 17 17 17 17 16 15 14 14 14 14 14 14 15 15 15 15 14 14 13 13 13 13 13 13 13 12 10 9 8 9 9 10
15 14 14 14 14 13 10 9 9 11 12 13 13 14 14 14 14 14 13 13 13 13 14 14 15 16 16 16 16 16 16 16 16 17 17 17 18 18 19 19 18 17 17 16 16 16 16 16 17 17 17 17 16 17 17 18 18 17 16 14 14 15 15 15 14 13 14 13 13 13 13 14 14 14 14 14 13 13 12 11 10 9 8 9 9 9
14 14 14 14 13 12 10 10 11 12 12 13 13 13 13 13 12 12 12 12 12 13 13 14 14 14 14 13 13 13 13 13 14 14 15 15 16 16 17 17 17 17 17 17 17 17 17 17 17 17 17 16 16 16 16 18 18 17 15 14 14 15 15 14 13 13 12 13 13 14 14 14 14 14 14 13 13 12 11 9 9 9 9 9 9 9
14 14 14 14 13 12 12 12 12 12 12 12 12 12 12 12 12 11 11 12 13 13 13 14 14 13 11 10 11 12 12 13 13 14 14 14 14 15 15 16 16 16 17 17 16 16 16 16 16 17 17 17 16 15 15 16 17 17 15 14 13 12 11 12 13 13 13 14 15 15 15 14 13 13 13 13 12 11 10 10 9 10 10 10 9 9
14 13 13 13 13 12 11 11 11 12 12 12 12 12 12 12 12 12 12 12 13 14 14 15 13 11 10 10 12 13 14 14 14 13 13 13 13 14 14 15 15 16 16 16 16 15 15 16 17 18 18 18 16 15 15 15 15 15 15 14 13 12 11 12 13 14 15 15 15 14 13 13 13 13 13 12 11 10 9 9 9 9 8 8 8 8
14 14 14 13 13 11 10 10 11 11 11 12 12 13 12 12 12 12 12 13 14 15 15 14 11 9 9 10 12 13 14 15 14 14 13 12 12 12 13 13 14 14 15 15 15 15 16 16 17 18 18 18 17 16 15 15 14 14 14 14 13 13 13 14 14 14 14 13 12 11 12 13 13 13 11 10 9 8 8 7 7 6 6 5 5 6
13 14 14 13 12 11 10 10 10 10 11 11 12 12 12 12 12 12 13 13 14 15 14 12 9 8 9 10 12 13 14 15 15 14 13 13 13 13 13 13 13 14 14 15 15 16 17 17 18 19 19 18 18 17 16 14 13 13 14 14 14 13 13 13 13 12 11 10 10 11 13 13 11 10 10 9 9 8 7 6 5 4 4 4 4 4
13 13 13 13 11 10 9 9 10 10 11 12 12 12 11 11 11 12 12 13 14 14 13 10 8 8 9 11 12 13 14 14 15 15 14 14 14 13 13 13 14 14 15 15 16 17 18 19 20 20 19 18 16 16 15 14 13 13 13 14 13 12 11 11 10 9 9 9 10 11 11 10 9 9 9 10 10 9 7 5 3 2 2 3 4 5
13 13 13 12 11 9 9 9 10 11 11 12 12 11 11 10 11 11 12 13 14 13 11 8 7 8 10 11 12 13 13 14 14 14 14 14 14 14 14 14 15 15 15 16 16 17 18 19 20 20 20 18 16 13 12 12 13 14 14 14 13 12 10 9 9 9 10 10 10 10 9 8 7 8 9 10 10 9 6 4 2 1 1 3 4 6
13 13 13 12 11 10 10 10 11 11 11 12 12 11 11 11 11 12 13 14 13 12 9 7 7 9 10 11 12 13 13 13 13 14 14 14 14 14 15 15 15 15 15 16 16 16 17 16 16 15 15 15 13 11 10 11 13 14 15 14 13 10 9 8 9 10 11 10 9 8 7 7 7 7 8 9 9 8 7 5 4 3 4 5 6 6
12 12 12 12 11 11 11 11 11 11 11 12 12 12 11 11 11 12 13 13 12 10 7 6 7 9 10 11 12 12 12 13 13 13 13 13 13 14 14 15 15 15 15 15 15 15 15 15 13 10 8 7 6 6 8 10 12 13 14 14 13 10 9 8 9 10 10 10 9 8 8 7 8 8 8 8 8 8 7 6 6 6 6 7 7 8
12 13 13 12 11 11 11 10 10 10 11 11 12 12 12 11 12 12 12 12 10 8 6 7 8 9 10 11 12 12 12 12 12 12 12 13 13 13 14 14 14 14 13 13 13 13 12 11 10 9 7 6 7 8 9 10 11 12 12 13 13 12 10 8 9 10 10 9 9 9 8 9 9 9 8 8 8 7 7 7 7 7 8 8 9 9
Wind_Direction
293 296 298 299 299 298 296 296 297 298 299 299 300 300 300 299 298 297 297 296 296 296 295 295 294 294 293 293 293 293 293 293 294 294 295 295 295 296 296 296 296 296 295 295 294 293 293 292 291 289 288 287 286 285 284 282 282 281 280 279 278 278 277 277 277 278 278 279 279 280 280 280 280 279 277 276 276 275 273 272 270 270 270 272 273 273
296 297 298 299 298 297 297 297 298 299 299 300 300 300 299 299 298 297 297 296 296 296 296 296 296 295 294 294 293 293 293 293 294 294 294 294 295 295 295 295 296 296 295 295 294 293 293 292 291 290 288 288 287 285 284 283 282 281 281 279 279 278 277 277 277 277 276 277 277 278 279 279 278 277 277 278 278 278 277 277 276 274 274 274 275 275
299 299 299 300 299 298 298 299 300 300 299 299 298 298 297 297 297 297 297 297 297 297 296 296 296 296 295 295 294 294 293 293 293 293 294 294 294 295 295 295 295 295 295 295 294 293 293 292 292 291 290 289 288 286 285 284 283 282 281 280 279 278 277 277 277 276 275 275 274 274 275 275 275 275 275 276 276 277 277 277 277 277 277 277 277 276
298 299 300 301 300 298 298 299 300 300 299 297 296 296 296 296 295 296 296 296 297 297 296 297 297 296 296 296 295 294 293 293 293 293 293 293 294 294 294 294 294 294 295 295 294 294 293 293 293 293 292 291 290 288 287 286 285 284 283 281 280 279 278 277 276 275 274 273 272 272 271 271 272 272 272 273 273 273 273 273 274 274 275 275 275 275
297 298 299 301 300 299 298 299 300 299 298 296 295 295 295 295 295 295 295 296 296 296 296 296 296 296 296 296 295 294 294 293 293 292 292 292 293 293 294 295 295 295 295 295 294 294 293 293 294 294 294 294 293 292 291 290 289 287 286 284 282 281 279 278 277 275 273 272 271 271 270 270 270 270 270 270 270 269 269 269 270 271 272 272 272 273
296 296 297 298 297 297 299 299 299 298 297 295 295 295 295 294 294 294 294 295 295 295 295 295 295 295 295 294 294 294 294 293 292 291 291 292 293 294 295 296 296 296 295 295 294 294 294 294 294 294 295 295 295 294 294 293 292 291 290 288 286 285 283 281 279 278 276 275 274 273 273 273 272 272 272 272 271 271 270 270 271 271 270 270 271 272
294 294 295 296 296 296 296 297 297 297 296 297 298 298 297 295 293 292 291 291 292 293 293 293 293 293 292 293 293 294 294 293 292 291 291 293 295 296 297 297 297 296 295 294 293 293 293 293 293 293 294 295 295 295 294 293 293 292 291 290 289 288 286 285 284 282 281 280 280 279 279 278 277 276 277 277 277 277 277 277 277 277 277 276 276 276
293 295 296 296 297 297 296 295 295 296 296 298 300 301 300 297 294 290 289 289 289 290 291 292 291 291 291 292 293 293 293 291 290 290 291 294 296 297 297 297 295 294 293 293 292 292 291 291 291 291 293 294 296 296 295 294 293 292 292 291 290 288 286 285 285 284 284 283 282 281 281 279 278 278 278 278 278 278 278 277 277 278 278 278 279 279
293 295 296 295 296 297 298 296 295 295 296 298 299 299 298 296 293 291 289 290 290 290 290 291 291 291 291 292 292 292 290 287 286 288 292 295 297 297 296 295 293 292 291 291 290 290 290 290 290 290 291 293 294 295 295 295 295 294 293 292 290 289 287 285 284 284 283 282 281 280 278 278 277 275 275 275 275 274 273 272 272 272 272 274 275 275
290 291 293 293 293 293 295 296 296 296 296 296 294 292 289 288 289 290 291 292 292 291 289 289 291 294 296 296 294 291 287 284 284 287 291 295 296 296 295 293 291 290 289 288 288 288 289 289 289 290 290 292 293 293 294 295 295 295 295 294 293 291 290 288 286 285 283 282 281 279 277 277 276 275 274 274 274 274 275 273 273 273 272 273 273 274
288 289 291 293 294 293 291 292 294 295 295 293 290 286 281 278 281 286 291 293 293 291 290 290 293 298 301 300 297 291 286 285 287 291 294 296 297 296 295 293 291 289 287 287 287 289 290 290 290 291 292 293 294 294 294 295 296 296 297 297 296 295 293 292 290 288 285 283 281 279 278 277 276 275 275 274 275 275 276 275 275 275 274 274 274 274
289 291 292 293 294 294 293 292 291 291 291 287 285 284 284 283 285 289 293 295 295 294 294 294 297 300 302 300 296 291 286 286 289 294 297 299 299 300 299 298 296 293 292 292 292 293 294 294 294 295 296 296 295 295 294 295 295 296 298 299 298 297 295 293 292 290 288 285 283 280 277 276 275 274 273 273 273 273 273 273 273 274 274 273 274 274
289 290 291 291 292 292 293 293 292 290 287 285 286 290 295 298 300 301 300 298 296 297 298 300 301 301 300 298 294 289 286 286 290 295 298 300 303 306 309 312 312 311 307 304 302 302 302 302 301 300 298 296 295 293 293 293 293 293 294 293 293 292 292 293 292 291 290 288 286 282 278 276 274 272 271 271 271 271 271 272 272 272 273 273 274 274
288 289 288 288 289 290 291 292 292 292 293 293 294 296 298 301 303 303 301 298 298 300 303 303 302 300 298 296 291 285 283 285 290 295 298 302 307 313 319 324 325 323 320 316 313 311 310 309 306 302 298 295 293 292 291 291 290 289 289 288 287 286 286 287 289 289 290 289 288 285 282 278 275 273 271 271 270 271 271 272 272 273 273 273 274 274
288 289 288 287 288 289 291 292 293 293 294 294 295 295 295 296 296 296 295 296 297 300 301 300 299 297 296 293 288 284 282 285 291 296 300 304 308 314 318 322 323 321 318 315 313 311 309 307 304 302 299 295 292 289 289 288 287 287 286 285 284 284 284 285 286 288 289 290 289 287 284 281 278 275 273 272 271 271 271 271 271 272 273 273 273 273
284 284 284 285 286 288 289 289 289 288 290 291 291 291 290 290 291 291 291 291 293 295 296 297 297 297 295 293 289 286 287 294 300 307 311 311 311 313 315 314 312 309 307 305 303 302 301 300 299 298 297 294 291 288 286 284 284 285 285 284 283 284 284 284 286 288 290 291 290 288 286 283 280 277 275 273 272 271 270 270 270 271 272 273 273 273
277 278 279 282 284 286 289 288 286 284 286 288 288 287 286 287 290 292 291 290 290 290 290 291 292 294 295 294 292 291 299 309 317 321 321 315 311 310 308 303 298 297 299 298 296 296 296 296 296 295 294 293 292 289 286 285 284 285 285 284 284 285 285 285 286 287 289 290 289 287 286 284 282 279 276 274 271 270 269 268 269 271 272 273 274 274
275 275 278 281 284 287 289 289 287 285 285 287 288 288 287 288 290 290 288 287 286 286 286 286 286 284 286 291 293 299 309 317 319 318 312 305 302 301 299 295 293 294 296 296 296 297 297 296 295 295 294 293 292 291 289 288 287 287 286 284 284 285 285 285 286 287 288 290 289 288 286 284 282 279 276 274 271 269 268 267 268 270 271 273 274 275
275 275 276 280 283 285 285 284 284 285 288 291 292 292 291 291 289 287 286 285 284 283 283 282 282 282 286 293 302 308 312 312 308 302 299 297 296 297 297 296 295 295 296 297 299 299 299 298 297 296 295 294 293 292 293 294 294 294 292 290 287 284 283 283 285 286 288 289 290 289 287 284 282 279 276 273 271 268 267 267 268 270 271 273 274 275
275 275 276 280 284 285 283 283 284 287 290 292 292 292 290 289 287 286 284 283 281 280 280 282 288 295 303 306 308 309 311 307 301 296 296 296 297 298 299 298 297 297 297 298 299 300 300 299 298 297 296 296 296 296 297 299 301 301 299 297 293 288 284 282 283 285 287 289 290 289 288 285 282 279 276 273 270 268 267 268 268 270 271 273 274 275
277 277 277 280 283 285 286 287 288 288 288 289 288 287 284 283 282 281 280 282 285 293 302 308 309 310 310 307 306 307 308 307 304 301 299 297 297 297 298 297 297 296 296 297 299 300 300 299 298 298 297 297 298 298 299 300 300 300 301 300 298 295 290 287 285 285 286 288 289 289 288 286 283 279 275 271 269 267 267 268 269 271 272 273 275 275
274 275 275 276 276 278 282 285 285 285 285 284 283 281 278 277 277 280 286 299 313 318 316 310 305 302 303 302 302 303 305 304 302 299 297 294 293 294 296 296 296 295 295 297 299 300 300 299 298 297 297 297 297 298 298 298 297 298 301 303 303 302 299 296 293 290 288 288 288 288 287 286 283 279 275 271 268 266 266 267 269 270 272 273 274 275
268 269 271 273 274 276 279 281 282 282 282 280 277 275 272 273 277 289 309 318 316 310 304 298 295 296 298 298 298 298 300 299 297 294 292 289 290 293 297 298 298 296 296 298 300 301 300 298 297 296 297 297 298 298 299 299 299 301 303 304 304 304 302 300 296 292 289 287 286 286 286 285 282 279 275 270 267 265 265 266 268 270 271 272 273 274
266 267 272 275 277 278 279 279 280 280 279 277 274 272 273 278 288 301 307 306 303 298 295 296 297 298 300 299 298 298 298 297 295 293 290 288 290 294 298 301 302 300 299 300 301 302 301 299 297 297 298 298 299 300 300 301 301 301 301 300 300 299 298 296 292 289 285 283 282 282 283 283 281 279 275 270 266 264 264 265 267 269 270 271 273 274
271 274 278 280 281 281 280 279 278 278 277 277 277 280 286 294 301 304 303 302 300 298 297 300 300 300 301 302 301 299 297 296 294 292 290 290 291 295 298 302 302 301 299 300 301 302 300 299 298 298 299 299 299 299 299 298 297 296 297 297 297 297 296 294 290 286 282 279 278 278 280 280 280 278 275 271 267 265 265 266 267 269 270 271 272 273
281 283 284 285 285 284 283 281 279 279 279 280 285 293 303 307 307 305 304 303 303 303 303 302 300 300 301 301 299 297 295 295 293 292 292 293 294 295 297 299 300 299 299 300 301 302 301 300 299 299 299 299 298 297 295 295 295 296 297 299 301 303 304 302 299 294 288 281 277 276 278 279 278 276 273 271 268 267 266 267 269 270 271 272 273 274
288 288 289 290 289 288 286 284 283 283 285 289 297 306 311 311 310 307 305 305 306 305 304 302 300 300 300 298 295 293 294 295 294 294 295 296 295 294 295 298 299 300 300 301 302 302 301 300 299 299 299 298 296 295 295 296 298 300 304 307 311 315 317 320 321 318 312 303 294 288 287 286 284 281 277 274 271 269 269 270 271 272 273 273 274 275
293 293 293 293 293 293 291 291 291 294 298 303 308 310 311 311 308 304 302 304 305 305 302 300 299 299 298 295 293 293 294 293 294 295 297 297 293 291 294 299 302 303 304 303 303 302 301 299 299 298 298 297 296 297 298 301 304 308 310 311 313 314 317 320 321 321 319 317 314 310 307 303 299 295 291 287 282 279 277 277 276 275 274 275 275 275
297 296 297 299 301 304 306 309 311 311 309 308 308 308 308 306 302 298 298 301 303 302 299 298 296 295 294 294 294 293 292 291 292 297 303 301 295 291 296 302 305 306 307 307 306 304 301 300 299 298 298 300 302 304 307 309 311 312 312 312 311 311 312 312 311 311 311 311 311 311 309 306 303 301 299 296 293 289 286 282 280 278 276 275 274 274
299 299 302 307 312 316 318 318 316 312 306 304 304 304 303 299 295 293 295 299 300 298 296 295 295 294 294 296 295 293 290 290 295 305 316 313 302 296 300 303 304 306 309 310 308 304 302 302 303 303 305 308 311 312 313 313 312 311 310 310 310 311 311 311 310 309 309 309 309 308 306 303 301 299 297 296 293 290 286 283 280 278 276 275 273 272
301 304 308 310 311 311 309 307 305 304 302 300 299 299 297 294 292 292 295 297 296 293 292 292 292 293 294 295 295 293 291 293 299 311 320 314 302 297 301 301 302 305 309 311 311 304 305 306 306 307 309 310 310 310 310 309 308 307 307 308 309 310 311 313 313 313 313 312 311 308 306 303 301 299 297 295 292 289 285 282 279 277 275 273 272 272
304 306 305 304 304 304 302 301 300 299 298 297 297 296 295 293 291 291 292 291 289 288 287 289 290 290 290 289 287 286 289 292 297 305 311 305 298 296 298 300 302 304 308 309 306 304 305 305 304 305 305 305 304 304 305 305 305 305 306 306 307 308 309 311 313 313 313 313 311 308 305 303 301 300 298 295 292 288 284 281 277 274 272 271 270 271
304 303 302 302 302 301 300 299 298 296 296 296 296 297 296 294 292 291 289 287 285 285 286 287 288 289 289 288 286 284 285 289 293 299 304 303 299 297 299 301 303 305 307 306 302 296 291 291 297 300 300 300 301 302 303 304 305 305 306 306 306 306 308 309 309 310 310 310 309 307 305 302 301 300 298 295 292 287 284 280 277 273 270 268 268 270
302 302 302 302 302 301 299 298 297 296 296 297 298 298 297 295 294 292 291 289 287 286 286 286 288 290 291 291 288 286 285 287 291 297 303 305 303 301 302 302 303 304 305 303 299 294 288 288 291 295 298 299 300 301 302 303 304 304 305 306 306 306 306 307 306 306 306 306 305 304 302 300 299 297 296 295 293 291 285 281 277 272 269 267 267 268
301 301 301 301 301 301 300 299 299 298 298 299 300 299 298 297 297 296 295 293 291 289 287 286 286 287 289 289 288 287 286 287 291 296 302 305 305 304 302 300 300 300 300 298 296 294 290 290 291 293 296 299 301 302 302 302 303 304 304 305 305 305 305 305 305 304 303 302 301 299 298 297 295 293 292 291 292 292 289 285 281 277 274 273 271 271
299 300 300 301 301 301 301 301 301 302 302 302 303 302 301 300 299 297 296 294 292 291 289 287 286 285 283 281 281 282 283 286 289 292 295 298 299 299 296 294 294 294 293 292 291 290 290 292 294 295 297 298 301 302 303 304 304 304 304 304 304 304 303 303 302 301 300 299 297 296 296 294 292 289 286 286 287 289 289 288 286 284 283 281 277 275
299 299 300 300 301 300 300 301 302 304 306 306 305 303 302 300 298 297 295 294 292 292 290 289 288 285 283 280 278 278 281 284 287 289 290 292 291 289 287 287 289 288 285 285 287 289 291 293 296 297 298 298 299 301 303 304 305 304 302 302 303 303 302 302 301 300 298 297 296 296 297 296 295 292 289 287 287 288 286 286 286 287 287 286 283 280
298 298 298 298 297 295 296 297 301 305 308 307 304 303 301 299 298 296 294 293 293 293 292 292 291 289 288 285 283 283 284 286 288 289 290 291 290 287 282 282 282 281 278 277 281 286 290 293 295 297 297 297 297 298 300 302 302 302 301 301 301 300 300 300 301 301 300 300 300 301 302 304 305 307 309 308 305 299 293 287 284 285 287 289 288 284
294 294 294 294 293 292 293 296 300 305 306 304 302 302 301 299 297 295 294 294 295 296 296 295 293 292 291 290 289 287 287 287 288 289 290 290 288 285 280 276 274 274 274 274 277 281 285 287 289 291 293 295 296 298 299 300 299 300 301 301 301 300 300 301 302 303 303 303 303 303 305 308 313 318 322 322 318 313 305 296 288 282 281 283 284 283
291 292 294 295 295 296 299 303 307 307 306 304 302 301 301 299 297 296 295 295 296 297 296 294 292 290 289 288 287 287 287 287 288 289 291 291 289 285 280 275 273 274 275 277 278 279 280 281 282 283 285 287 291 295 298 298 299 300 302 302 302 302 303 304 304 303 302 302 302 303 305 309 313 315 315 314 312 308 304 298 290 282 276 275 277 278
293 296 299 301 303 306 311 313 312 309 306 305 303 302 301 298 296 296 297 297 295 293 292 289 287 285 283 283 285 287 290 292 294 295 295 294 293 291 287 284 283 284 285 286 286 284 281 279 279 280 282 284 288 291 294 296 298 300 300 300 299 301 303 304 304 304 303 302 302 303 304 306 306 306 305 305 303 301 298 292 286 280 276 276 276 277
297 299 301 304 308 312 315 313 311 308 307 305 303 300 297 296 295 295 296 296 294 292 290 286 283 281 282 286 291 297 299 300 300 300 299 298 297 295 294 293 293 293 293 291 289 286 283 281 281 283 285 287 289 291 292 295 298 299 299 298 298 301 303 305 306 306 305 302 301 300 300 300 300 301 302 303 301 298 294 286 278 273 273 274 274 271
297 297 298 300 302 304 305 306 307 307 306 304 300 296 294 294 294 293 293 293 292 291 289 285 283 285 290 298 305 308 308 307 305 304 302 300 298 295 294 293 292 291 290 287 285 284 285 286 287 288 290 290 290 288 289 293 297 299 299 298 298 301 302 303 305 305 303 300 298 298 299 302 305 307 307 304 300 295 289 282 276 272 270 267 266 264
293 294 295 295 295 296 298 300 303 304 303 300 297 296 294 292 291 290 290 291 291 290 288 287 290 296 304 310 313 312 312 311 311 309 307 304 302 300 300 299 298 297 295 290 289 291 294 295 294 293 292 292 290 288 288 291 294 297 297 297 295 292 290 294 298 300 299 298 298 301 306 313 317 318 315 311 306 299 293 288 286 282 277 270 265 263
291 292 293 293 292 290 290 293 297 299 299 297 296 296 294 292 290 288 288 289 289 288 286 290 299 309 314 315 315 314 314 314 314 314 313 312 311 311 311 311 311 310 307 302 298 297 297 296 294 293 293 293 291 289 288 290 292 294 295 295 292 288 285 287 290 293 294 298 303 310 319 324 326 327 325 320 313 306 299 296 294 291 286 279 272 272
291 292 292 291 288 284 282 287 292 295 296 296 295 294 293 292 291 290 289 289 286 285 286 295 307 317 317 316 315 315 315 315 315 315 316 316 317 317 317 316 315 313 310 305 300 295 291 289 288 289 292 292 291 290 290 291 293 294 295 295 293 289 287 288 290 293 298 306 314 321 324 329 335 338 333 324 315 305 297 294 288 284 284 288 291 295
292 293 294 291 287 282 282 288 293 295 295 295 293 292 292 292 292 291 290 288 286 286 292 303 313 317 315 314 314 315 314 314 314 314 316 317 318 318 318 317 315 312 310 306 301 296 291 288 285 285 285 286 287 289 292 297 299 300 299 298 296 293 292 295 301 309 317 324 327 328 331 337 344 343 333 325 317 308 297 287 274 269 287 309 318 318
295 296 296 295 292 289 289 293 295 295 293 292 291 291 292 293 293 293 292 290 289 291 299 309 316 316 314 313 313 313 313 313 313 314 315 317 319 320 321 321 320 317 314 310 305 301 297 295 291 287 282 277 276 282 292 303 310 312 309 306 303 302 305 314 326 336 340 339 337 337 341 347 347 339 330 326 322 319 317 311 304 316 342 341 333 325
296 296 296 296 295 293 293 295 294 293 291 292 292 292 293 294 296 296 295 292 290 293 300 313 319 318 315 313 312 312 313 312 312 313 315 317 320 322 324 324 324 323 320 318 315 313 311 309 307 300 289 277 273 278 296 313 323 325 323 321 321 323 332 342 347 349 348 348 348 349 351 353 351 343 333 323 321 325 335 347 4 14 11 359 347 336
295 294 293 292 290 288 289 290 291 291 292 295 297 297 297 297 298 296 293 289 289 294 307 320 323 318 314 311 311 312 313 314 314 314 314 317 320 322 324 325 327 327 327 327 328 327 327 328 329 328 320 309 308 318 330 334 336 337 338 339 343 349 356 355 351 350 353 355 356 356 355 352 350 343 332 322 321 329 341 358 11 14 7 360 350 341
292 291 290 288 285 282 282 284 287 291 294 298 301 302 301 299 298 296 292 288 291 301 315 320 317 313 310 309 310 312 314 315 314 313 314 317 320 323 324 326 329 332 333 334 335 336 338 338 339 342 350 2 4 359 355 350 346 344 345 345 347 348 348 344 342 343 347 352 356 358 357 352 346 340 335 333 335 341 350 359 4 3 358 352 345 339